Location: Cabeza de los Veneras
(40.2000°N, 5.2000°W)
Time: 13:24:06
(UTC+00:00)

USA 267 - Pass Details

Date: 18 April 2024
Orbit: 1100 x 1107 km, 123.0° (Epoch: 21 May)

Event Time Altitude Azimuth Distance (km) Brightness Sun altitude
Rises 19:21:23 0° 45° (NE) 3,923 5.9 -4.2°
Reaches altitude 10° 19:23:52 10° 43° (NE) 2,964 5.3 -4.6°
Maximum altitude 19:30:23 72° 321° (NW) 1,156 3.6 -5.8°
Drops below altitude 10° 19:36:52 10° 238° (WSW) 2,957 6.1 -7.0°
Sets 19:39:21 0° 237° (WSW) 3,914 6.7 -7.4°
